Terminal Aerodrome Forecast
Issued by NWS

Home | Current Version | Previous Version | Text Only | Print | Product List | Glossary On
Versions: 1 2 3 4 5 6 7 8 9 10 11 12 13 14 15 16 17 18 19
000
FTUS44 KEWX 010500
TAFSSF
TAF
KSSF 010527Z 0106/0206 08005KT P6SM BKN060 BKN120
     FM011100 03004KT P6SM BKN025
     FM011700 05005KT P6SM BKN050=

USA.gov is the U.S. government's official web portal to all federal, state and local government web resources and services.